Flag for U.S.A. Weather past 2 weeks in Santa Clara, California, U.S.A.

Now
64 °F

Clear.


Feels Like: 64 °F
Forecast: 56 / 78 °F
Wind: No wind

Location: San Jose International Airport

Current Time: Oct 1, 2014 at 12:00:05 AM

Latest Report: Sep 30, 2014 at 10:53 PM


Visibility: 10 mi

Pressure: 29.85 "Hg

Humidity: 75%

Dew point: 56 °F

Location of Santa ClaraLocation

Historic Weather in Santa Clara — Graph

°F

Santa Clara temperature yesterday

Maximum temperature yesterday: 75 °F (at 2:53 PM)
Minimum temperature yesterday: 55 °F (at 4:53 AM)
Average temperature yesterday: 64 °F

Past Weeks' High & Low Weather Summary

 TemperatureHumidityPressure
High82 °F (Sep 17, 1:53 PM)100% (Sep 25, 2:53 AM)30.05 "Hg (Sep 25, 2:53 AM)
Low55 °F (Sep 30, 4:53 AM)26% (Sep 16, 2:53 PM)29.73 "Hg (Sep 17, 4:53 PM)
Average66 °F73%29.92 "Hg
* Reported Sep 15 10:53 PM — Sep 30 10:53 PM, Santa Clara, Weather by CustomWeather, © 2014

Note: Actual official high and low records may vary slightly from our data, if they occured in-between our weather recording intervals... More about our weather records

Advertising

Santa Clara weather history for previous 24 hours

 ConditionsComfort  
Time TempWeatherWind HumidityBarometerVisibility
10:53 PM
Sep 30
64 °FClear.No wind75%29.85 "Hg10 mi
9:53 PM65 °FClear.5 mph73%29.85 "Hg10 mi
8:53 PM66 °FClear.7 mph68%29.85 "Hg10 mi
7:53 PM67 °FClear.10 mph66%29.85 "Hg10 mi
6:53 PM68 °FSunny.10 mph65%29.84 "Hg10 mi
5:53 PM72 °FPassing clouds.9 mph53%29.84 "Hg10 mi
4:53 PM74 °FPassing clouds.12 mph50%29.84 "Hg10 mi
3:53 PM74 °FPassing clouds.13 mph45%29.85 "Hg10 mi
2:53 PM75 °FPassing clouds.14 mph33%29.87 "Hg10 mi
1:53 PM72 °FPassing clouds.8 mph52%29.90 "Hg10 mi
12:53 PM70 °FPassing clouds.6 mph61%29.92 "Hg10 mi
11:53 AM66 °FScattered clouds.5 mph70%29.94 "Hg10 mi
10:53 AM64 °FScattered clouds.10 mph75%29.96 "Hg10 mi
9:53 AM64 °FScattered clouds.5 mph75%29.96 "Hg10 mi
8:53 AM60 °FPassing clouds.No wind80%29.97 "Hg10 mi
7:53 AM56 °FPassing clouds.3 mph90%29.97 "Hg10 mi
6:53 AM55 °FPassing clouds.No wind93%29.97 "Hg10 mi
5:53 AM56 °FPassing clouds.No wind90%29.97 "Hg10 mi
4:53 AM55 °FClear.No wind96%29.96 "Hg10 mi
3:53 AM56 °FClear.No wind93%29.97 "Hg10 mi
2:53 AM58 °FClear.No wind90%29.96 "Hg10 mi
1:53 AM56 °FClear.3 mph93%29.98 "Hg10 mi
12:53 AM59 °FClear.No wind87%29.99 "Hg10 mi
Weather by CustomWeather, © 2014

See weather overviewHow to use our weather pages